Regional Weather Roundup
Issued by NWS Goodland, KS

Home | Current Version | Previous Version | Graphics & Text | Print | Product List | Glossary On
Versions: 1 2 3 4 5 6 7 8 9 10 11 12 13 14 15 16 17 18 19 20 21 22 23 24 25 26 27 28 29 30 31 32 33 34 35 36 37 38 39 40 41 42 43 44 45 46 47 48 49 50
000
ASUS43 KGLD 162359
RWRGLD

GOODLAND FORECAST AREA HOURLY WEATHER ROUNDUP
NATIONAL WEATHER SERVICE GOODLAND KS
600 PM MDT TUE SEP 16 2014

...OFFICIAL OBSERVATIONS...

CITY           SKY/WX    TMP DP  RH WIND       PRES   REMARKS
GOODLAND KS    CLEAR     83  54  36 S9        29.99R
HILL CITY KS   CLEAR     80  62  54 SE8       29.96F
IMPERIAL NEB   CLEAR     83  51  33 N7        29.98R
MCCOOK NEB     CLEAR     76  59  55 E13       29.95F
AKRON CO       SUNNY     80  38  22 NE9       30.07S
BURLINGTON CO  CLEAR     86  39  19 N9        30.02S
LIMON CO       MOSUNNY   79  35  20 N6        30.11S
$$

...UNOFFICIAL OBSERVATIONS...

CITY           SKY/WX    TMP DP  RH WIND       PRES   REMARKS
COLBY KS       CLEAR     82  59  44 S8        29.97S
GOVE KS          N/A     83  32  16 MISG        N/A
NORTON KS      CLEAR     73  55  53 E7        29.96F
SHARON SPRINGS   N/A     85  56  36 S6          N/A
WAKEENEY KS      N/A     81  57  43 MISG        N/A
TRENTON NEB      N/A     80  32  17 E12         N/A
YUMA CO          N/A     82  40  23 NE10        N/A
$$


USA.gov is the U.S. government's official web portal to all federal, state and local government web resources and services.